Weather History for Oujda, Morocco

Change the Weather History Date:

Thursday, October 17, 2013

  Actual Average Record
Temperature  
Mean Temperature 72 °F -  
Max Temperature 88 °F 70 °F 93 °F (2001)
Min Temperature 57 °F 49 °F 48 °F (2004)
Cooling Degree Days 8    
Growing Degree Days 22 (Base 50)    
Moisture  
Dew Point 49 °F    
Average Humidity 44    
Maximum Humidity 88    
Minimum Humidity 14    
Precipitation  
Precipitation 0.00 in 0.05 in - ()
Sea Level Pressure  
Sea Level Pressure 30.03 in    
Wind  
Wind Speed 5 mph ()    
Max Wind Speed 16 mph    
Max Gust Speed -    
Visibility 8.1 miles    
Events      
Averages and records for this station are not official NWS values.
T = Trace of Precipitation, MM = Missing Value Source: Averaged Metar Reports

Daily Weather History Graph

Daily Weather History Graph

Search for Another Location

Airport:

Trip Planner

Search our weather history database for the weather conditions in past years. The results will help you decide how hot, cold, wet, or windy it might be!

Date:

Astronomy

Oct. 17, 2013 Rise Set
Actual Time 7:15 AM WEST 6:30 PM WEST
Civil Twilight 6:49 AM WEST 6:55 PM WEST
Nautical Twilight 6:20 AM WEST 7:25 PM WEST
Astronomical Twilight 5:51 AM WEST 7:54 PM WEST
Moon 5:34 PM WEST (10/17) 5:34 AM WEST (10/17)
Length of Visible Light 12h 06m
Length of Day
11h 15m
Waxing Gibbous, 97% of the Moon is Illuminated
Oct 17
Waxing Gibbous
Oct 19
Full
Oct 27
Last Quarter
Nov 3
New
Nov 10
First Quarter

Hourly Weather History & Observations

Time (WEST) Temp. Heat Index Dew Point Humidity Pressure Visibility Wind Dir Wind Speed Gust Speed Precip Events Conditions
12:00 AM 64.4 °F - 42.8 °F 45% 30.12 in - SW 4.6 mph - N/A   Clear
1:00 AM 63 °F - 43 °F 37% 30.08 in 12 mi SW 5.8 mph - -   Clear
1:00 AM 62.6 °F - 42.8 °F 48% 30.09 in - SW 5.8 mph - N/A   Clear
4:00 AM 60 °F - 43 °F 41% 30.05 in - WSW 3.5 mph - -  
6:00 AM 59.0 °F - 42.8 °F 55% 30.06 in - WSW 4.6 mph - N/A   Clear
7:00 AM 57.2 °F - 42.8 °F 59% 30.06 in - West 2.3 mph - N/A   Clear
8:00 AM 60.8 °F - 44.6 °F 55% 30.06 in - SW 4.6 mph - N/A   Clear
9:00 AM 73.4 °F - 44.6 °F 36% 30.06 in - Calm Calm - N/A   Clear
10:00 AM 79 °F - 44 °F 19% 30.01 in 12 mi NE 2.3 mph - -   Scattered Clouds
10:00 AM 78.8 °F - 44.6 °F 30% 30.06 in - Variable 2.3 mph - N/A   Clear
11:00 AM 82.4 °F - 44.6 °F 26% 30.06 in - NNE 3.5 mph - N/A   Clear
12:00 PM 87.8 °F - 42.8 °F 21% 30.04 in - North 3.5 mph - N/A   Clear
1:00 PM 88 °F - 46 °F 14% 29.93 in 12 mi North 10.4 mph - -   Scattered Clouds
1:00 PM 87.8 °F - 46.4 °F 24% 30.04 in - North 11.5 mph - N/A   Clear
3:00 PM 87.8 °F - 51.8 °F 29% 29.98 in 6.2 mi North 16.1 mph - N/A   Scattered Clouds
4:00 PM 82 °F - 53 °F 26% 29.91 in 12 mi North 16.1 mph - -   Scattered Clouds
4:00 PM 82.4 °F 81.4 °F 53.6 °F 37% 29.98 in 6.2 mi North 16.1 mph - N/A   Scattered Clouds
5:00 PM 82.4 °F 81.4 °F 53.6 °F 37% 29.98 in 6.2 mi North 12.7 mph - N/A   Scattered Clouds
6:00 PM 78.8 °F - 55.4 °F 44% 29.98 in 6.2 mi North 10.4 mph - N/A   Scattered Clouds
9:00 PM 68.0 °F - 60.8 °F 78% 30.04 in 6.2 mi NNE 8.1 mph - N/A   Partly Cloudy
10:00 PM 65 °F - 61 °F 82% 30.01 in 6 mi NNE 4.6 mph - -   Scattered Clouds
10:00 PM 66.2 °F - 60.8 °F 83% 30.04 in 6.2 mi NNE 4.6 mph - N/A   Partly Cloudy
11:00 PM 64.4 °F - 60.8 °F 88% 30.04 in 6.2 mi NNW 8.1 mph - N/A   Partly Cloudy